FW2998 Weather Reports


time (UTC)temp
F
wind
direction
speed
knots
gust
knots
rain 1hr
in
rain 24hr
in
rain mn
in
humidity
%
barometer
mb
20260509002522 68 0 0.0 0.0 0.01 0.10 0.09 58 1015.0
20260509002019 68 0 0.0 0.0 0.00 0.09 0.08 57 1014.9
20260509001537 68 0 0.0 0.0 0.00 0.09 0.08 57 1014.9
20260509001018 68 0 0.0 0.0 0.00 0.09 0.08 57 1014.9
20260509000519 69 0 0.0 0.0 0.00 0.09 0.08 56 1014.8
20260509000035 69 0 0.0 0.0 0.00 0.09 0.08 56 1014.9
20260508235521 69 0 0.0 0.0 0.00 0.10 0.08 56 1014.7
20260508235023 69 0 0.0 0.0 0.00 0.10 0.08 55 1014.9
20260508234532 69 0 0.0 0.0 0.00 0.10 0.08 56 1014.7
20260508234022 69 0 0.0 0.0 0.00 0.10 0.08 55 1014.7
20260508233523 70 0 0.0 0.0 0.00 0.10 0.08 55 1014.8
20260508233039 70 0 0.0 0.0 0.00 0.10 0.08 55 1014.7
20260508232521 70 0 0.0 0.0 0.00 0.10 0.08 55 1014.6
20260508232020 70 0 0.0 1.7 0.00 0.10 0.08 54 1014.7
20260508231537 70 0 0.0 1.7 0.00 0.10 0.08 54 1014.9
20260508231020 70 0 0.0 0.0 0.00 0.10 0.08 54 1014.8
20260508230520 70 0 0.0 0.9 0.00 0.10 0.08 54 1014.8
20260508230036 71 0 0.0 0.9 0.00 0.10 0.08 52 1014.9
20260508225525 71 0 0.0 0.0 0.00 0.11 0.08 53 1014.7
20260508225022 71 0 0.0 0.0 0.00 0.11 0.08 53 1014.7
20260508224547 71 0 0.0 0.0 0.00 0.11 0.08 53 1014.9
20260508224023 71 0 0.0 0.0 0.00 0.11 0.08 53 1014.7
20260508223524 71 0 0.0 1.7 0.00 0.11 0.08 52 1014.7
20260508223035 71 0 0.0 1.7 0.00 0.11 0.08 51 1014.7
20260508222520 71 0 0.0 2.6 0.01 0.11 0.08 51 1014.8
20260508222019 71 0 0.0 2.6 0.01 0.11 0.08 50 1014.9
20260508221535 72 0 0.0 1.7 0.01 0.11 0.08 50 1014.9
20260508221020 72 0 0.0 2.6 0.01 0.11 0.08 49 1014.7
20260508220521 72 102 0.0 2.6 0.01 0.11 0.08 49 1015.1
20260508220044 73 0 0.0 2.6 0.01 0.11 0.08 48 1014.9
20260508215524 73 0 0.0 0.9 0.01 0.11 0.08 49 1014.9
20260508215018 73 0 0.0 0.0 0.01 0.11 0.08 50 1014.9
20260508214543 73 0 0.0 0.0 0.01 0.11 0.08 49 1014.9
20260508214021 73 0 0.0 0.0 0.01 0.11 0.08 50 1014.7
20260508213518 73 0 0.0 0.0 0.01 0.11 0.08 49 1014.9
20260508213039 73 0 0.0 2.6 0.00 0.10 0.07 51 1014.9
20260508212518 73 0 0.0 2.6 0.00 0.10 0.07 46 1014.8
20260508212019 73 0 0.9 3.5 0.00 0.10 0.07 46 1014.7
20260508211538 74 98 0.9 3.5 0.00 0.10 0.07 45 1014.5
20260508211020 74 0 0.0 3.5 0.00 0.10 0.07 44 1014.7
20260508210521 75 98 0.0 2.6 0.00 0.10 0.07 44 1014.8
20260508210039 75 0 0.0 2.6 0.00 0.10 0.07 45 1014.8
20260508205518 75 0 0.0 0.9 0.00 0.11 0.07 45 1014.9
20260508205018 75 0 0.0 3.5 0.00 0.11 0.07 44 1015.1
20260508204539 75 0 0.9 3.5 0.00 0.11 0.07 43 1015.1
20260508204018 76 0 0.0 0.9 0.00 0.11 0.07 42 1015.3
20260508203518 76 0 0.0 1.7 0.00 0.11 0.07 45 1015.1
20260508203040 76 92 0.0 3.5 0.00 0.11 0.07 43 1015.1
20260508202523 76 0 0.0 3.5 0.00 0.11 0.07 41 1015.2
20260508202018 76 0 0.0 1.7 0.00 0.11 0.07 44 1015.2
20260508201536 76 0 0.0 2.6 0.00 0.11 0.07 46 1015.2
20260508201018 76 0 0.0 2.6 0.00 0.11 0.07 42 1015.1
20260508200518 76 263 0.0 1.7 0.00 0.11 0.07 41 1015.1
20260508200036 76 0 0.0 1.7 0.00 0.11 0.07 43 1015.1
20260508195517 76 0 0.0 3.5 0.00 0.12 0.07 41 1015.2
20260508195020 76 0 0.0 3.5 0.00 0.12 0.07 41 1015.3
20260508194538 76 0 0.0 2.6 0.01 0.12 0.07 41 1015.3
20260508194018 76 0 0.0 2.6 0.01 0.12 0.07 41 1015.3
20260508193521 76 0 0.0 4.3 0.01 0.12 0.07 42 1015.3
20260508193039 76 0 0.9 4.3 0.01 0.12 0.07 39 1015.4
20260508192518 77 0 0.0 2.6 0.01 0.12 0.07 44 1015.6
20260508192022 77 0 0.0 2.6 0.01 0.12 0.07 41 1015.8
20260508191545 77 0 0.0 2.6 0.01 0.12 0.07 42 1015.9
20260508191021 77 227 0.0 2.6 0.01 0.12 0.07 41 1016.1
20260508190521 77 0 0.0 1.7 0.01 0.12 0.07 44 1016.1
20260508190044 76 0 0.0 2.6 0.01 0.12 0.07 43 1016.2
20260508185518 76 0 0.0 2.6 0.01 0.12 0.07 45 1016.1
20260508185020 76 0 0.0 3.5 0.01 0.12 0.07 41 1016.2
20260508184539 76 0 0.0 3.5 0.00 0.11 0.06 41 1016.2
20260508184018 77 0 0.0 2.6 0.00 0.11 0.06 42 1016.2
20260508183520 77 0 0.0 2.6 0.00 0.11 0.06 46 1016.3
20260508183036 76 0 0.9 2.6 0.00 0.11 0.06 43 1016.6
20260508182520 76 0 0.0 3.5 0.00 0.11 0.06 46 1016.5
20260508182021 76 234 0.9 3.5 0.00 0.11 0.06 43 1016.5
20260508181543 76 132 0.0 2.6 0.00 0.11 0.06 45 1016.7
20260508181021 75 0 0.0 2.6 0.00 0.11 0.06 47 1016.6
20260508180520 74 0 0.0 3.5 0.00 0.11 0.06 46 1016.8
20260508180038 74 279 0.9 3.5 0.00 0.11 0.06 44 1017.0
20260508175522 74 0 0.0 1.7 0.00 0.12 0.06 44 1016.8
20260508175021 74 0 0.0 1.7 0.01 0.12 0.06 45 1017.0
20260508174541 74 169 0.0 1.7 0.01 0.12 0.06 47 1017.1
20260508174018 74 87 0.0 3.5 0.01 0.12 0.06 44 1017.0
20260508173522 74 86 0.0 3.5 0.01 0.12 0.06 46 1017.2
20260508173037 74 85 0.9 3.5 0.01 0.12 0.06 45 1017.1
20260508172523 73 0 0.0 3.5 0.01 0.12 0.06 46 1017.1
20260508172018 73 99 0.0 3.5 0.01 0.12 0.06 48 1017.3
20260508171543 73 110 0.9 2.6 0.01 0.12 0.06 48 1017.4
20260508171020 73 0 0.0 0.9 0.01 0.12 0.06 50 1017.5
20260508170519 72 0 0.0 0.9 0.01 0.12 0.06 47 1017.6
20260508170036 72 76 0.0 1.7 0.01 0.12 0.06 47 1017.7
20260508165518 72 0 0.0 1.7 0.01 0.13 0.06 46 1017.8
20260508165019 73 0 0.0 1.7 0.00 0.12 0.05 46 1017.7
20260508164536 73 0 0.0 1.7 0.00 0.12 0.05 47 1018.0
20260508164022 73 0 0.0 1.7 0.00 0.12 0.05 48 1018.1
20260508163518 73 0 0.0 1.7 0.00 0.12 0.05 50 1018.0
20260508163053 72 0 0.0 2.6 0.00 0.12 0.05 48 1018.1
20260508162523 72 0 0.0 2.6 0.00 0.12 0.05 50 1018.2
20260508162021 72 0 0.0 2.6 0.00 0.12 0.05 51 1018.4
20260508161550 71 0 0.0 2.6 0.00 0.12 0.05 50 1018.4
20260508161019 71 191 0.0 1.7 0.00 0.12 0.05 53 1018.5
20260508160525 70 0 0.0 1.7 0.00 0.12 0.05 52 1018.5
20260508160036 69 0 0.0 1.7 0.00 0.12 0.05 52 1018.6
20260508155521 69 0 0.0 2.6 0.00 0.12 0.05 52 1018.7
20260508155019 69 351 0.0 2.6 0.00 0.12 0.05 56 1018.7
20260508154535 68 87 0.0 2.6 0.00 0.12 0.05 51 1018.8
20260508154024 68 0 0.0 2.6 0.00 0.12 0.05 54 1018.8
20260508153519 68 0 0.0 2.6 0.00 0.12 0.05 52 1018.8
20260508153052 68 0 0.0 2.6 0.00 0.12 0.05 54 1018.8
20260508152521 68 0 0.0 1.7 0.00 0.12 0.05 54 1018.7
20260508152020 68 0 0.0 2.6 0.00 0.12 0.05 54 1018.7
20260508151539 68 101 0.0 2.6 0.00 0.12 0.05 53 1018.6
20260508151023 68 0 0.0 2.6 0.00 0.12 0.05 54 1018.7
20260508150521 68 128 0.0 3.5 0.00 0.12 0.05 53 1018.7
20260508150032 67 0 0.0 3.5 0.00 0.12 0.05 55 1018.7
20260508145518 67 103 0.0 3.5 0.00 0.13 0.05 50 1018.8
20260508145021 67 0 0.0 1.7 0.00 0.13 0.05 52 1018.8
20260508144537 68 0 0.0 1.7 0.01 0.13 0.05 51 1018.8
20260508144021 68 105 0.0 2.6 0.01 0.13 0.05 54 1018.7
20260508143520 68 97 0.9 3.5 0.01 0.13 0.05 50 1018.7
20260508143056 68 0 0.0 3.5 0.01 0.13 0.05 52 1018.7
20260508142521 69 0 0.0 5.2 0.01 0.13 0.05 52 1018.6
20260508142023 69 84 0.9 5.2 0.01 0.13 0.05 50 1018.6
20260508141539 70 331 0.0 4.3 0.01 0.13 0.05 52 1018.5
20260508141021 70 84 0.0 4.3 0.01 0.13 0.05 51 1018.5
20260508140521 70 122 0.0 6.1 0.01 0.13 0.05 53 1018.5
20260508140034 69 0 0.0 6.1 0.01 0.13 0.05 55 1018.7
20260508135522 69 0 0.9 6.1 0.01 0.15 0.05 53 1018.6
20260508135022 69 90 0.0 2.6 0.00 0.14 0.04 59 1018.6
20260508134538 68 0 0.0 3.5 0.00 0.14 0.04 58 1018.5
20260508134020 67 0 0.9 5.2 0.00 0.14 0.04 59 1018.5
20260508133520 67 0 0.0 5.2 0.00 0.14 0.04 61 1018.6
20260508133037 67 0 0.0 5.2 0.00 0.14 0.04 60 1018.5
20260508132520 66 0 0.0 3.5 0.00 0.14 0.04 64 1018.4
20260508132020 65 117 0.0 3.5 0.00 0.14 0.04 66 1018.4
20260508131537 64 0 0.0 1.7 0.00 0.14 0.04 69 1018.3
20260508131021 63 0 0.0 2.6 0.00 0.14 0.04 75 1018.2
20260508130520 62 0 0.0 2.6 0.00 0.14 0.04 74 1018.1
20260508130035 61 0 0.0 4.3 0.01 0.14 0.04 78 1018.2
20260508125521 60 0 0.0 4.3 0.01 0.15 0.04 81 1018.0
20260508125022 59 0 0.0 3.5 0.01 0.15 0.04 84 1017.9
20260508124539 58 0 0.0 3.5 0.01 0.15 0.04 89 1017.9
20260508124020 57 360 0.0 3.5 0.01 0.15 0.04 92 1017.8
20260508123521 57 0 0.0 5.2 0.01 0.15 0.04 92 1017.9
20260508123042 56 0 0.0 5.2 0.01 0.15 0.04 93 1017.8
20260508122520 56 128 0.0 2.6 0.01 0.15 0.04 94 1017.8
20260508122020 56 0 0.0 1.7 0.01 0.15 0.04 94 1017.8
20260508121538 56 0 0.0 1.7 0.01 0.15 0.04 93 1017.8
20260508121019 56 0 0.0 1.7 0.01 0.15 0.04 93 1017.6
20260508120521 56 0 0.0 1.7 0.01 0.15 0.04 93 1017.6
20260508120036 55 0 0.0 0.9 0.00 0.14 0.03 93 1017.6
20260508115523 55 0 0.0 0.0 0.00 0.16 0.03 93 1017.5
20260508115022 55 0 0.0 0.0 0.00 0.16 0.03 93 1017.5
20260508114536 55 0 0.0 0.0 0.00 0.16 0.03 92 1017.4
20260508114020 54 0 0.0 0.0 0.00 0.16 0.03 92 1017.3
20260508113523 54 0 0.0 0.0 0.00 0.16 0.03 92 1017.1
20260508113040 54 0 0.0 0.0 0.00 0.16 0.03 91 1016.9
20260508112526 54 0 0.0 0.0 0.00 0.16 0.03 91 1016.7
20260508112022 54 0 0.0 0.0 0.00 0.16 0.03 91 1016.8
20260508111541 54 0 0.0 0.0 0.00 0.16 0.03 90 1016.8
20260508111020 54 0 0.0 0.0 0.00 0.16 0.03 90 1016.7
20260508110519 54 0 0.0 0.0 0.00 0.16 0.03 90 1016.6
20260508110038 54 0 0.0 0.0 0.00 0.16 0.03 90 1016.6
20260508105519 54 0 0.0 0.0 0.00 0.16 0.03 90 1016.6
20260508105021 54 0 0.0 0.0 0.01 0.16 0.03 89 1016.4
20260508104537 54 0 0.0 0.0 0.01 0.16 0.03 89 1016.2
20260508104019 54 0 0.0 0.0 0.01 0.16 0.03 89 1016.1
20260508103519 54 0 0.0 0.0 0.01 0.16 0.03 89 1016.0
20260508103044 55 0 0.0 0.0 0.01 0.16 0.03 89 1015.9
20260508102519 55 0 0.0 0.0 0.01 0.16 0.03 89 1016.0
20260508102026 55 0 0.0 0.0 0.01 0.16 0.03 89 1015.9
20260508101536 55 0 0.0 0.0 0.01 0.16 0.03 89 1015.7
20260508101022 55 0 0.0 0.0 0.01 0.16 0.03 89 1015.7
20260508100520 55 0 0.0 0.0 0.01 0.16 0.03 89 1015.7
20260508100053 55 0 0.0 0.0 0.01 0.16 0.03 89 1015.6
20260508095525 55 0 0.0 0.0 0.01 0.17 0.03 88 1015.6
20260508095023 55 0 0.0 0.0 0.00 0.16 0.02 88 1015.5
20260508094536 55 0 0.0 0.0 0.00 0.16 0.02 88 1015.5
20260508094021 56 0 0.0 0.0 0.00 0.16 0.02 88 1015.5
20260508093522 56 0 0.0 0.0 0.00 0.16 0.02 88 1015.5
20260508093039 56 0 0.0 0.0 0.00 0.16 0.02 88 1015.4
20260508092520 56 0 0.0 0.0 0.00 0.16 0.02 88 1015.2
20260508092019 56 0 0.0 0.0 0.00 0.16 0.02 88 1015.2
20260508091544 56 0 0.0 0.0 0.00 0.16 0.02 88 1015.3
20260508091021 56 0 0.0 0.0 0.00 0.16 0.02 88 1015.3
20260508090519 57 0 0.0 0.0 0.01 0.16 0.02 88 1015.4
20260508090041 57 0 0.0 0.0 0.01 0.16 0.02 88 1015.3
20260508085520 57 0 0.0 0.0 0.01 0.17 0.02 88 1015.3
20260508085022 57 0 0.0 0.0 0.01 0.17 0.02 88 1015.2
20260508084535 57 0 0.0 0.0 0.01 0.17 0.02 88 1015.3
20260508084023 57 0 0.0 0.0 0.01 0.17 0.02 88 1015.3
20260508083523 57 0 0.0 0.0 0.01 0.17 0.02 88 1015.3
20260508083034 57 0 0.0 0.0 0.01 0.17 0.02 87 1015.3
20260508082521 57 0 0.0 0.0 0.01 0.17 0.02 87 1015.2
20260508082020 57 0 0.0 0.0 0.01 0.17 0.02 87 1015.1
20260508081553 57 0 0.0 0.0 0.01 0.17 0.02 87 1015.1
20260508081020 57 0 0.0 0.0 0.01 0.17 0.02 87 1015.0
20260508080519 57 0 0.0 0.0 0.00 0.16 0.01 87 1015.0
20260508080040 58 0 0.0 0.0 0.00 0.16 0.01 87 1014.9
20260508075521 58 0 0.0 0.0 0.00 0.16 0.01 87 1014.9
20260508075020 58 0 0.0 0.0 0.00 0.16 0.01 86 1014.8
20260508074537 58 0 0.0 0.0 0.00 0.16 0.01 86 1014.9
20260508074019 58 0 0.0 0.0 0.00 0.16 0.01 87 1014.9
20260508073521 58 0 0.0 0.0 0.00 0.16 0.01 86 1014.7
20260508073043 58 0 0.0 0.0 0.00 0.16 0.01 86 1014.7
20260508072519 58 0 0.0 0.0 0.00 0.16 0.01 86 1014.6
20260508072024 58 0 0.0 0.0 0.00 0.16 0.01 86 1014.7
20260508071539 58 0 0.0 0.0 0.00 0.16 0.01 85 1014.6
20260508071019 58 0 0.0 0.0 0.00 0.16 0.01 85 1014.5
20260508070523 58 0 0.0 0.0 0.00 0.16 0.01 85 1014.6
20260508070036 59 0 0.0 0.0 0.00 0.16 0.01 84 1014.5
20260508065522 59 0 0.0 0.0 0.00 0.17 0.01 84 1014.4
20260508065020 59 0 0.0 0.0 0.00 0.17 0.01 84 1014.3
20260508064540 59 0 0.0 0.0 0.00 0.17 0.01 84 1014.3
20260508064022 59 0 0.0 0.0 0.00 0.17 0.01 84 1014.5
20260508063519 59 0 0.0 0.0 0.00 0.17 0.01 84 1014.5
20260508063037 59 0 0.0 0.0 0.00 0.17 0.01 84 1014.6
20260508062519 60 0 0.0 0.0 0.00 0.17 0.01 84 1014.6
20260508062020 60 0 0.0 0.0 0.00 0.17 0.01 83 1014.6
20260508061536 60 0 0.0 0.0 0.00 0.17 0.01 84 1014.7
20260508061024 60 0 0.0 0.0 0.00 0.17 0.01 83 1014.8
20260508060520 60 0 0.0 0.0 0.00 0.17 0.01 83 1014.8
20260508060055 60 0 0.0 0.0 0.00 0.17 0.01 83 1014.8
20260508055522 60 0 0.0 0.0 0.00 0.18 0.01 83 1014.7
20260508055022 60 0 0.0 0.0 0.00 0.18 0.01 83 1014.7
20260508054609 61 0 0.0 0.0 0.00 0.18 0.01 83 1014.7
20260508054022 61 0 0.0 0.0 0.00 0.18 0.01 83 1014.8
20260508053521 61 0 0.0 0.0 0.00 0.18 0.01 82 1014.5
20260508053046 61 0 0.0 0.9 0.00 0.18 0.01 82 1015.0
20260508052520 61 0 0.0 0.9 0.00 0.18 0.01 81 1014.8
20260508052022 61 0 0.0 0.9 0.00 0.18 0.01 80 1014.6
20260508051541 61 0 0.0 0.0 0.00 0.18 0.01 80 1014.7
20260508051023 61 0 0.0 0.0 0.00 0.18 0.01 80 1014.7
20260508050521 62 0 0.0 0.0 0.01 0.18 0.01 79 1014.6
20260508050036 62 0 0.0 0.0 0.01 0.18 0.01 80 1014.6
20260508045521 62 0 0.0 0.0 0.01 0.19 0.01 79 1014.6
20260508045021 62 0 0.0 0.0 0.01 0.19 0.01 79 1014.5
20260508044535 62 0 0.0 3.5 0.01 0.19 0.01 79 1014.4
20260508044021 62 0 0.0 3.5 0.01 0.19 0.01 79 1014.3
20260508043520 62 0 0.0 5.2 0.01 0.19 0.01 78 1014.3
20260508043037 63 32 0.0 5.2 0.01 0.19 0.01 78 1014.2
20260508042522 63 0 0.0 5.2 0.01 0.19 0.01 78 1014.2
20260508042019 63 0 0.0 5.2 0.01 0.19 0.01 77 1014.1
20260508041537 63 0 0.0 5.2 0.01 0.19 0.01 77 1014.1
20260508041022 63 0 0.9 5.2 0.00 0.18 0.00 76 1014.0
20260508040519 64 28 0.0 3.5 0.00 0.18 0.00 76 1014.1
20260508040037 64 109 0.0 3.5 0.00 0.18 0.00 76 1014.1
20260508035522 64 0 0.0 7.0 0.00 0.23 0.18 75 1014.0
20260508035022 65 0 0.0 7.0 0.00 0.23 0.18 74 1014.0
20260508034546 65 49 0.0 4.3 0.00 0.23 0.18 74 1014.0
20260508034021 65 340 0.0 4.3 0.00 0.23 0.18 73 1014.0
20260508033520 66 0 0.9 4.3 0.00 0.23 0.18 73 1013.8
20260508033036 66 0 0.0 3.5 0.00 0.23 0.18 75 1013.8
20260508032522 67 98 0.0 4.3 0.00 0.23 0.18 77 1013.7
20260508032021 68 0 0.0 5.2 0.00 0.23 0.18 77 1013.7
20260508031536 68 109 0.9 8.7 0.00 0.23 0.18 77 1013.4
20260508031019 68 0 0.9 8.7 0.01 0.23 0.18 77 1013.5
20260508030519 69 0 0.9 8.7 0.01 0.23 0.18 77 1013.3
20260508030040 69 42 0.0 9.6 0.01 0.23 0.18 78 1013.3
20260508025519 70 101 0.0 9.6 0.01 0.26 0.18 78 1013.1
20260508025019 70 74 0.0 9.6 0.01 0.26 0.18 79 1013.2
20260508024542 70 0 0.0 3.5 0.01 0.26 0.18 78 1012.9
20260508024019 70 0 0.0 3.5 0.01 0.26 0.18 78 1012.7
20260508023521 71 0 0.0 0.0 0.01 0.26 0.18 78 1012.7
20260508023036 71 0 0.0 0.0 0.01 0.26 0.18 77 1012.4
20260508022524 71 0 0.0 0.0 0.01 0.26 0.18 77 1012.2
20260508022019 71 0 0.0 2.6 0.01 0.26 0.18 77 1012.2
20260508021532 71 0 0.0 3.5 0.00 0.25 0.17 76 1012.0
20260508021024 71 0 0.0 3.5 0.00 0.25 0.17 76 1011.9
20260508020520 71 29 0.0 3.5 0.00 0.25 0.17 76 1011.8
20260508020034 71 0 0.0 4.3 0.00 0.25 0.17 76 1011.9
20260508015519 71 0 0.9 4.3 0.00 0.25 0.17 76 1011.6
20260508015019 72 0 0.0 3.5 0.00 0.25 0.17 75 1011.4
20260508014540 72 0 0.0 3.5 0.00 0.25 0.17 75 1011.3
20260508014021 72 0 0.0 3.5 0.00 0.25 0.17 74 1011.1
20260508013519 72 0 0.0 3.5 0.00 0.25 0.17 74 1011.1
20260508013037 72 277 0.0 3.5 0.00 0.25 0.17 74 1011.0
20260508012522 73 0 0.0 2.6 0.00 0.25 0.17 73 1011.0
20260508012021 73 0 0.0 0.9 0.00 0.25 0.17 73 1010.9
20260508011537 73 0 0.0 1.7 0.00 0.25 0.17 72 1010.8
20260508011020 73 0 0.0 2.6 0.00 0.25 0.17 72 1010.8
20260508010520 73 0 0.0 6.1 0.00 0.25 0.17 72 1010.7
20260508010048 74 0 0.0 6.1 0.00 0.25 0.17 71 1010.7
20260508005519 74 0 0.0 6.1 0.01 0.25 0.17 71 1010.7
20260508005021 74 0 0.0 6.1 0.01 0.25 0.17 71 1010.6
20260508004534 74 0 0.0 5.2 0.01 0.25 0.17 70 1010.5
20260508004021 74 0 0.0 5.2 0.01 0.25 0.17 70 1010.4
20260508003520 75 0 0.0 6.1 0.01 0.25 0.17 70 1010.2
20260508003036 75 0 0.0 6.1 0.01 0.25 0.17 69 1010.2